Weather in Krakow

Poland     50°03′43″N   19°56′12″E
temp.,
°C
wind,
m/s
gust,
m/s
humid.,
%
clouds,
%
prec.,
mm/h
press.,
hPa
HPBL,
m
16 may, sun
sun1623:00+12ssw1187100 0.1 100710
02:00+10s1188100 0.1 100712
05:00+10sse1188100 0.0 100614
08:00+13ssw1383100 0.0 1006145
11:00+12wnw3589100 1.2 1006235
14:00+11w2794100 2.4 1007332
17:00+14sw3477100 0.4 1006828
20:00+11s22885 0.5 100627
17 may, mon
mon1723:00+9ssw22890 0.0 100712
02:00+8sse1190100 0.0 100711
05:00+7se228942 0.0 100615
08:00+12e3480100 0.0 1005235
11:00+17e5662100 0.0 10031008
14:00+15w787694 0.1 1003581
17:00+13wnw5683100 0.3 1004705
20:00+10w4998100 3.9 1005498
18 may, tue
tue1823:00+9w4997100 3.4 1006443
02:00+9w61296100 5.1 1007631
05:00+9w61294100 0.1 1007887
08:00+9w71292100 0.3 1009836
11:00+13w71177100 0.3 10091180
14:00+15w71063100 0.9 10091590
17:00+15w696573 0.1 10101670
20:00+11w48865 0.4 1011215
19 may, wed
wed1923:00+8wsw38922 0.0 1013156
02:00+7wsw37938 0.0 1013160
05:00+8wsw389590 0.0 1013267
08:00+10wnw688687 0.0 1014617
11:00+12w4578100 0.1 1014844
14:00+14wnw4569100 0.1 10121151
17:00+11wnw5785100 1.5 1012538
20:00+9wsw3694100 3.8 1013191
20 may, thu
thu2023:00+8sw3695100 1.9 1013220
02:00+8w5895100 2.8 1013375
05:00+7w5996100 0.0 1014400
08:00+8w5995100 0.0 1014677
11:00+8nw5994100 1.0 1016570
14:00+12w366996 2.2 10151209
17:00+13w467176 0.5 1015509
20:00+9nw38845 1.1 1016164